Regional Weather Roundup
Issued by NWS

Home | Current Version | Previous Version | Text Only | Print | Product List | Glossary On
Versions: 1 2 3 4 5 6 7 8 9 10 11 12 13 14 15 16 17 18 19 20 21 22 23 24 25 26 27 28 29 30 31 32 33 34 35 36 37 38 39 40 41 42 43 44 45 46 47 48 49 50
000
ASCA42 TJSJ 091110
RWRPR
PUERTO RICO/U.S. VIRGIN ISLANDS HOURLY WEATHER ROUNDUP
NATIONAL WEATHER SERVICE SAN JUAN PR
700 AM AST FRI DEC 09 2016

PRZ001>002-007>008-010-091200-
PUERTO RICO

CITY           SKY/WX    TMP DP  RH WIND       PRES   REMARKS
SAN JUAN LMM   PTCLDY    79  73  83 VRB3      30.02R
AGUADILLA      MOCLDY    73  72  94 E7        30.03
CEIBA          MOCLDY    79  73  83 E9        30.03S
$$

VIZ001>002-091200-
U.S. VIRGIN ISLANDS

CITY           SKY/WX    TMP DP  RH WIND       PRES   REMARKS
CHARLOTTE AMA  PTCLDY    79  75  89 E7        30.00S
CHRISTIANSTED  MOCLDY    79  73  83 NE7       30.01R
$$

HOURLY WEATHER ROUNDUP FOR THE NEWS MEDIA

CITY           SKY/WX    TMP DP  RH WIND       PRES   REMARKS
ORLANDO        LGT RAIN  52  46  80 N8        30.24R
NEW YORK       PTCLDY    33  17  51 W17G23    30.07R WCI  22
NEWARK         PTCLDY    31  17  56 W18       30.07R WCI  19
CHICAGO        CLOUDY    22  16  78 W9        30.45S WCI  12
HARTFORD       CLEAR     32  20  61 W14       29.90R WCI  22
BOSTON         PTCLDY    32  18  56 W15       29.88R WCI  22
DALLAS         PTCLDY    27  16  63 N5        30.65S WCI  22
PHILADELPHIA   CLEAR     30  16  56 W10       30.18R WCI  21
LOS ANGELES    MOCLDY    54  52  93 E3        30.27R
WASHINGTON DC  CLEAR     27  11  51 NW7       30.26R WCI  19


USA.gov is the U.S. government's official web portal to all federal, state and local government web resources and services.